Voltar ao catálogo

OPS 4682 DEB

AtivoPO
NORAD 51493·DEBRIS·🇺🇸 United States

Lançado Apr 3, 1965 de Vandenberg Space Force Base

Loading…

Próximas Passagens (próximas 24 horas)

TLE

AtualizadoSource: Space-Track

Época: Sep 11, 2026, 13:36 UTC

1 51493U 65027GD  26254.56702356  .00000263  00000-0  90219-3 0  9990
2 51493  90.2516  13.2416 0026384 317.1002  42.8060 12.95770886417826

Acompanhe OPS 4682 DEB em tempo real com AllMySat

Download on the App Store